Wind_Speed
4 5 5 5 4 4 3 3 3 3 3 3 2 2 2 3 3 3 4 4 5 5 5 5 6 6 6 6 6 6 7 7 7 7 8 8 8 8 8 9 9 9 9
4 4 4 4 4 4 4 3 3 3 4 3 3 3 2 3 4 4 4 5 5 5 5 6 6 6 6 6 6 7 7 7 7 7 8 9 9 9 9 10 10 11 11
3 3 3 3 4 4 4 4 3 3 4 3 3 3 3 4 4 5 5 6 5 5 6 6 7 6 6 6 6 6 7 7 8 8 9 9 9 9 10 11 11 12 12
4 3 2 2 3 4 4 4 4 3 4 4 4 3 4 4 5 5 6 6 6 6 6 7 7 7 6 6 6 6 7 8 9 9 10 10 10 10 11 11 12 13 13
3 2 2 1 2 3 3 3 4 4 4 4 4 4 4 5 5 5 6 7 7 7 7 7 7 7 7 7 7 8 8 8 9 10 10 10 11 11 12 12 13 13 14
2 2 1 0 1 2 3 4 4 4 5 5 5 5 5 5 6 6 6 7 7 7 7 8 8 8 8 8 8 8 9 9 9 10 10 10 11 11 12 12 12 13 13
2 2 1 1 1 2 3 4 4 5 5 6 6 6 6 6 6 7 6 7 8 8 8 9 9 9 9 9 9 9 9 9 10 10 10 11 11 11 12 12 13 13 13
3 2 2 2 2 2 2 3 4 4 5 6 6 7 7 7 8 8 8 8 8 9 9 9 10 10 10 10 10 10 10 10 10 11 11 11 12 12 12 13 14 14 14
2 2 2 2 3 3 3 3 3 4 6 6 7 8 8 9 8 9 9 9 9 9 9 9 10 11 11 12 12 12 11 11 11 12 12 13 13 12 12 13 14 14 15
2 2 3 3 4 4 5 5 5 5 6 7 8 9 9 9 9 9 9 9 9 10 10 10 11 12 12 13 13 13 13 13 13 13 14 14 14 14 14 14 14 14 15
4 4 5 5 5 6 6 7 7 7 7 8 8 8 9 9 9 9 9 9 9 10 10 11 12 12 12 13 14 14 14 15 14 15 15 14 14 15 15 16 16 16 16
6 6 6 6 6 7 7 8 8 8 9 9 9 10 10 10 9 9 9 9 9 9 9 10 11 12 13 13 13 13 14 14 15 16 15 15 15 15 16 16 17 17 17
7 7 8 8 8 8 9 9 10 10 10 11 12 12 11 11 10 10 10 9 10 10 11 11 11 12 12 12 13 13 13 13 14 15 16 16 16 17 17 17 18 18 17
10 9 9 9 9 9 10 10 11 11 12 13 13 13 13 12 11 12 12 11 11 12 12 12 13 13 13 13 13 14 13 13 13 14 15 15 16 16 16 17 17 17 18
11 11 11 11 10 11 11 11 11 11 12 13 13 14 15 14 14 13 13 13 13 13 13 13 13 14 14 14 14 14 14 14 15 15 16 16 16 17 17 17 17 17 17
14 13 13 13 13 14 14 13 13 13 13 14 14 15 15 15 15 14 14 14 14 14 14 14 15 14 15 15 15 16 16 16 16 16 17 17 17 17 17 18 17 17 18
17 17 17 17 16 16 15 15 15 16 16 16 16 16 16 17 16 15 15 15 15 16 15 15 16 16 16 17 17 17 17 18 18 18 18 17 18 18 18 18 18 18 18
21 20 20 19 19 18 17 17 18 18 18 17 17 17 17 18 18 17 17 17 18 18 17 17 17 18 18 18 19 19 19 20 20 20 19 19 19 19 20 19 19 19 20
22 21 21 21 21 21 20 20 20 20 19 19 19 18 18 18 18 18 18 19 19 19 19 18 18 19 19 19 20 20 20 21 21 21 21 21 21 21 21 21 20 20 20
23 22 23 23 23 23 23 23 22 21 21 20 20 20 19 19 20 20 19 20 20 21 20 20 20 20 20 21 22 22 22 21 22 22 22 22 22 22 22 22 22 22 22
26 26 26 25 25 25 24 24 24 23 22 22 21 21 21 21 21 21 21 21 22 22 21 21 21 21 22 22 24 24 25 24 23 24 24 24 24 24 24 24 23 23 23
28 28 28 28 28 28 26 25 25 25 25 23 23 23 23 22 22 22 22 23 23 23 23 23 23 23 23 24 25 25 26 26 25 26 26 26 25 25 25 25 25 24 24
30 30 30 29 29 28 28 28 27 27 27 26 26 25 25 24 25 24 24 24 24 25 25 25 25 25 25 25 26 26 26 27 27 28 28 27 26 26 27 27 26 26 26
31 31 31 31 33 33 31 30 29 29 29 28 28 28 27 27 27 27 26 26 26 27 27 27 27 27 27 26 26 26 27 27 28 28 28 28 27 28 28 28 28 28 27
33 33 33 34 35 34 33 32 31 30 31 31 30 30 29 29 29 29 29 29 28 28 29 29 28 28 29 29 28 28 28 28 28 28 28 28 28 29 29 29 29 29 29
36 36 35 35 35 35 34 34 32 31 31 31 32 32 32 32 31 31 31 30 30 30 30 30 30 30 30 31 31 30 30 29 29 29 30 29 29 30 30 30 30 30 30
Wind_Direction
172 185 186 194 202 203 204 213 222 227 226 230 238 245 238 221 220 228 235 236 240 248 249 248 251 253 257 263 269 266 260 261 262 258 257 259 262 261 261 264 265 263 266
147 165 185 194 201 205 212 215 223 227 237 236 244 244 241 231 230 237 248 246 245 249 250 252 256 260 261 266 270 266 263 260 263 262 261 260 260 259 262 262 263 263 265
116 131 163 182 194 205 215 221 232 244 243 244 248 251 249 250 250 254 256 252 249 249 250 255 260 263 263 261 265 268 269 263 265 267 264 263 261 260 264 268 263 263 264
108 111 131 155 188 205 218 233 244 250 252 250 249 255 260 261 261 263 264 261 257 258 257 257 258 260 260 263 266 268 269 268 268 266 263 262 261 263 266 269 268 265 263
101 110 119 141 170 200 218 238 245 253 253 247 251 262 274 274 268 267 269 270 265 266 262 258 258 259 262 266 268 269 273 274 270 267 265 261 261 266 270 271 271 268 265
95 108 93 60 241 233 234 237 247 251 250 249 254 260 273 275 270 265 268 269 267 269 266 260 260 262 264 266 269 272 275 275 275 270 268 266 265 267 270 271 271 271 270
61 57 34 9 331 299 260 254 255 252 252 250 255 259 270 274 267 268 272 271 266 264 265 263 259 260 263 268 272 274 276 280 280 276 277 274 270 271 273 272 270 271 272
45 40 32 19 1 347 319 283 274 267 264 261 260 266 274 277 271 269 272 270 267 266 264 263 260 259 263 267 271 272 273 278 281 277 278 278 273 272 272 274 271 271 271
18 15 4 353 343 341 333 321 288 280 280 276 276 274 272 273 277 273 271 269 265 264 262 261 262 264 267 268 268 269 270 273 276 276 276 275 270 272 273 277 275 272 271
344 330 334 328 319 320 318 315 309 291 286 285 285 284 280 280 279 275 271 269 264 262 263 262 262 263 266 268 270 272 274 275 273 276 277 275 274 273 273 273 275 275 275
322 316 317 312 304 304 307 305 299 296 288 286 289 291 292 288 284 279 274 271 270 269 265 264 264 265 266 268 273 274 274 274 275 275 276 277 277 276 276 277 277 275 276
314 310 311 308 305 302 304 304 297 293 290 283 285 290 291 291 286 280 277 271 271 273 272 272 272 271 270 272 275 277 278 275 274 276 277 276 276 276 278 278 280 277 275
301 299 299 297 299 299 300 300 296 291 289 285 281 282 284 283 283 278 276 273 273 274 275 276 277 278 277 279 276 278 281 281 279 278 278 277 276 278 278 279 281 280 278
292 292 292 291 292 294 298 298 294 290 286 285 282 280 278 278 279 276 273 272 271 272 274 276 279 280 279 280 279 277 278 279 280 283 284 281 280 282 281 280 282 281 277
288 287 287 287 287 288 290 294 295 292 286 285 282 278 275 275 276 274 272 270 268 270 272 273 275 278 278 279 279 279 281 280 280 281 282 282 282 281 282 282 282 281 278
283 283 280 281 283 284 285 287 290 292 291 288 286 282 277 276 273 269 269 271 272 274 273 273 273 275 277 279 280 281 280 280 281 282 284 283 282 282 282 282 282 281 280
279 280 279 280 281 279 281 284 286 287 288 288 284 280 277 275 272 270 270 272 274 275 273 272 272 272 274 276 279 280 280 281 282 283 284 284 283 283 283 283 282 281 281
278 280 280 278 278 278 279 282 284 284 284 284 283 280 277 274 272 272 272 274 276 276 276 276 276 274 272 274 276 279 278 281 282 283 282 282 282 282 283 283 283 282 280
280 279 278 277 278 278 278 279 280 280 281 281 281 281 276 271 271 272 273 275 276 276 277 279 279 277 275 275 276 277 277 278 280 282 282 281 281 281 281 281 282 281 280
282 280 278 277 277 278 278 277 277 276 277 280 279 278 276 272 271 272 273 275 276 277 277 278 279 280 279 278 278 279 279 279 280 280 281 281 280 280 279 279 279 280 280
279 279 279 277 277 277 276 275 274 273 275 277 278 278 276 274 272 272 273 275 276 279 280 280 281 282 281 281 280 280 279 279 279 280 281 281 280 279 278 278 279 279 280
278 277 277 275 275 275 273 274 274 273 272 273 276 276 275 273 273 273 273 275 277 279 280 281 283 284 283 282 282 282 281 279 279 279 280 280 279 278 277 278 278 278 278
276 276 276 275 273 274 273 272 271 271 271 271 273 272 272 272 274 275 275 275 277 278 280 281 283 283 283 283 283 282 281 279 278 279 280 280 278 278 278 278 278 277 278
274 275 275 275 273 270 270 269 267 269 268 268 269 270 269 270 272 273 275 275 277 278 279 280 281 282 282 282 283 282 281 281 280 278 277 276 277 277 278 277 276 276 278
273 273 272 273 272 269 268 268 268 270 268 267 268 268 268 270 271 270 272 275 277 278 279 280 279 280 281 281 281 281 282 282 280 279 277 276 276 277 278 279 278 278 277
271 272 271 272 272 268 267 266 269 269 269 269 269 268 268 270 271 271 272 274 276 278 279 279 279 279 280 281 280 280 281 281 280 278 278 276 275 276 276 278 279 279 277
Height
5895 5895 5896 5897 5897 5897 5897 5898 5898 5898 5898 5898 5898 5898 5898 5898 5898 5899 5899 5899 5899 5898 5898 5898 5898 5897 5897 5897 5897 5896 5896 5896 5896 5896 5896 5896 5896 5896 5896 5895 5895 5895 5895
5895 5896 5896 5896 5896 5897 5897 5897 5897 5897 5897 5897 5898 5898 5898 5898 5898 5898 5898 5898 5897 5897 5897 5897 5896 5896 5896 5896 5895 5895 5895 5894 5894 5894 5894 5894 5894 5894 5893 5893 5893 5893 5893
5895 5895 5895 5895 5895 5896 5896 5896 5896 5896 5897 5897 5897 5897 5897 5897 5897 5897 5897 5896 5896 5896 5895 5895 5895 5894 5894 5894 5894 5894 5893 5893 5893 5892 5892 5892 5892 5891 5891 5891 5891 5890 5890
5895 5895 5895 5895 5894 5894 5895 5895 5895 5895 5896 5896 5896 5896 5896 5896 5896 5896 5896 5895 5895 5894 5894 5893 5893 5893 5892 5892 5892 5892 5891 5891 5890 5890 5890 5889 5889 5889 5889 5889 5888 5888 5887
5895 5895 5895 5894 5894 5894 5894 5894 5894 5895 5895 5895 5895 5895 5895 5895 5895 5895 5894 5893 5893 5893 5892 5892 5891 5891 5891 5891 5890 5890 5889 5889 5888 5887 5887 5887 5886 5886 5886 5886 5885 5885 5885
5894 5894 5895 5894 5894 5893 5893 5893 5893 5893 5893 5894 5894 5894 5894 5894 5893 5893 5892 5892 5891 5891 5890 5890 5889 5889 5889 5889 5888 5888 5887 5886 5886 5885 5885 5884 5884 5883 5883 5883 5882 5882 5881
5895 5895 5894 5894 5893 5893 5892 5892 5892 5892 5892 5892 5892 5892 5892 5892 5892 5891 5890 5890 5889 5889 5888 5888 5888 5887 5887 5887 5886 5886 5885 5884 5884 5883 5882 5882 5881 5881 5880 5880 5879 5879 5878
5895 5894 5894 5893 5893 5892 5892 5891 5891 5891 5891 5890 5891 5891 5891 5891 5890 5889 5888 5888 5887 5886 5886 5885 5885 5885 5885 5884 5884 5883 5883 5882 5881 5880 5880 5879 5878 5878 5877 5877 5876 5876 5875
5894 5894 5893 5893 5892 5892 5891 5890 5890 5889 5889 5889 5889 5889 5888 5888 5888 5887 5886 5886 5885 5884 5883 5883 5883 5883 5882 5882 5881 5880 5879 5879 5879 5878 5877 5876 5875 5875 5874 5873 5873 5872 5872
5894 5893 5892 5892 5891 5890 5890 5889 5888 5888 5888 5887 5887 5886 5886 5885 5885 5885 5885 5884 5883 5882 5881 5881 5881 5880 5879 5878 5878 5877 5876 5876 5876 5874 5873 5873 5872 5871 5871 5870 5870 5869 5868
5892 5892 5891 5890 5889 5888 5888 5887 5887 5886 5886 5886 5885 5884 5883 5883 5882 5882 5882 5881 5881 5880 5879 5878 5878 5877 5876 5875 5875 5874 5873 5872 5872 5871 5870 5869 5868 5868 5867 5867 5866 5865 5864
5891 5890 5889 5888 5887 5886 5886 5885 5884 5884 5884 5883 5883 5882 5881 5880 5879 5879 5879 5878 5878 5877 5876 5876 5875 5874 5873 5872 5872 5871 5870 5869 5868 5867 5866 5865 5865 5864 5864 5863 5862 5861 5860
5888 5887 5886 5885 5885 5884 5883 5882 5882 5881 5880 5880 5880 5879 5878 5877 5876 5876 5875 5875 5874 5874 5873 5872 5871 5870 5870 5869 5868 5867 5866 5865 5864 5863 5862 5861 5860 5860 5859 5859 5858 5857 5856
5886 5884 5883 5882 5882 5881 5880 5879 5878 5878 5877 5876 5876 5875 5875 5874 5873 5872 5872 5872 5871 5871 5870 5869 5868 5867 5866 5865 5864 5863 5862 5861 5861 5859 5858 5857 5856 5855 5855 5854 5853 5852 5851
5882 5881 5880 5879 5878 5877 5877 5876 5875 5874 5873 5872 5871 5871 5871 5870 5869 5868 5868 5867 5867 5867 5866 5865 5864 5863 5862 5861 5860 5859 5858 5857 5856 5855 5854 5853 5852 5851 5850 5849 5848 5847 5847
5878 5877 5876 5875 5874 5874 5873 5872 5871 5870 5869 5868 5867 5867 5866 5865 5864 5864 5863 5863 5862 5862 5862 5861 5859 5858 5857 5856 5856 5855 5853 5852 5851 5850 5849 5848 5847 5846 5845 5844 5843 5842 5842
5873 5872 5871 5870 5870 5869 5868 5867 5866 5866 5865 5863 5862 5861 5861 5860 5859 5859 5858 5858 5857 5857 5856 5856 5854 5854 5853 5852 5851 5850 5849 5847 5846 5845 5844 5843 5842 5841 5840 5839 5838 5837 5836
5867 5866 5865 5865 5864 5863 5863 5862 5861 5861 5860 5858 5857 5856 5855 5855 5854 5854 5853 5852 5852 5851 5851 5850 5849 5848 5847 5846 5845 5844 5843 5842 5841 5840 5839 5838 5837 5836 5834 5833 5832 5831 5830
5861 5860 5859 5859 5858 5857 5857 5856 5855 5855 5854 5853 5852 5851 5850 5849 5848 5848 5848 5847 5846 5845 5845 5844 5843 5842 5841 5840 5839 5838 5837 5836 5835 5834 5833 5832 5831 5830 5829 5828 5826 5825 5824
5854 5853 5853 5852 5851 5850 5850 5849 5849 5848 5847 5847 5846 5845 5844 5843 5842 5842 5841 5841 5840 5839 5838 5838 5837 5836 5835 5834 5833 5832 5831 5830 5829 5827 5826 5825 5824 5823 5822 5821 5820 5819 5818
5847 5847 5846 5845 5844 5843 5842 5842 5841 5841 5840 5840 5839 5838 5837 5837 5836 5835 5835 5834 5833 5832 5832 5831 5830 5829 5828 5827 5826 5825 5824 5823 5821 5820 5819 5818 5817 5816 5815 5814 5813 5812 5811
5839 5839 5838 5837 5836 5835 5835 5834 5834 5834 5833 5832 5832 5831 5830 5829 5829 5828 5827 5827 5826 5825 5825 5824 5823 5822 5821 5820 5818 5817 5816 5815 5814 5813 5811 5810 5809 5809 5808 5807 5806 5805 5804
5830 5830 5829 5828 5827 5827 5826 5826 5826 5825 5825 5824 5824 5823 5823 5822 5821 5821 5820 5819 5819 5818 5817 5817 5816 5814 5813 5812 5811 5809 5808 5807 5806 5804 5803 5802 5801 5801 5800 5799 5798 5797 5797
5821 5820 5820 5819 5818 5818 5817 5816 5816 5816 5816 5815 5815 5815 5814 5814 5813 5813 5813 5812 5811 5810 5809 5808 5807 5806 5805 5803 5802 5801 5799 5798 5797 5795 5795 5794 5794 5793 5792 5791 5790 5790 5789
5811 5810 5809 5809 5808 5807 5807 5807 5806 5806 5806 5806 5806 5805 5805 5805 5804 5804 5804 5803 5803 5802 5800 5799 5798 5797 5796 5794 5793 5792 5791 5789 5788 5787 5786 5786 5785 5784 5784 5783 5782 5781 5781
5801 5800 5799 5799 5797 5796 5796 5796 5796 5796 5796 5796 5796 5796 5796 5795 5795 5794 5794 5794 5794 5793 5791 5790 5789 5788 5787 5785 5784 5783 5782 5781 5780 5779 5778 5777 5776 5775 5775 5775 5774 5773 5772